Regional Weather Roundup
Issued by NWS

Home | Current Version | Previous Version | Text Only | Print | Product List | Glossary On
Versions: 1 2 3 4 5 6 7 8 9 10 11 12 13 14 15 16 17 18 19 20 21 22 23 24 25 26 27 28 29 30 31 32 33 34 35 36 37 38 39 40 41 42 43 44 45 46 47 48 49 50
207
ASUS43 KLMK 091910
RWRKY
KENTUCKY REGIONAL WEATHER ROUNDUP
NATIONAL WEATHER SERVICE LOUISVILLE KY
200 PM EST TUE FEB 09 2016

NOTE "FAIR" INDICATES FEW OR NO CLOUDS BELOW 12,000 FEET
WITH NO SIGNIFICANT WEATHER AND/OR OBSTRUCTIONS TO VISIBILITY.

KYZ001>023-026-027-061>063-070>075-092000-
WESTERN AND SOUTH CENTRAL KENTUCKY

CITY           SKY/WX    TMP DP  RH WIND       PRES   REMARKS
PADUCAH        LGT SNOW  25  16  68 NW12G18   29.98F WCI  14
HENDERSON      CLOUDY    23  12  63 W16       29.94S WCI  10
OWENSBORO      FLURRIES  23  14  68 W14       29.93S WCI  11
HOPKINSVILLE   LGT SNOW  23  16  75 NW13      29.94S WCI  11
BOWLING GREEN  CLOUDY    26  16  65 W15G21    29.90F WCI  14
GLASGOW        FLURRIES  25  17  73 W10       29.87F WCI  14
$$

KYZ024-025-028>034-038-045-046-053-092000-
NORTH CENTRAL KENTUCKY

CITY           SKY/WX    TMP DP  RH WIND       PRES   REMARKS
LOUISVILLE/SDF FLURRIES  25  14  63 W15       29.85S WCI  13
LOUISVILLE/LOU CLOUDY    24  14  65 W10       29.85S WCI  14
FORT KNOX      CLOUDY    24  15  69 W10       29.83F WCI  14
$$

KYZ035>037-039>044-047>052-055>060-089>105-092000-
NORTHEAST KENTUCKY

CITY           SKY/WX    TMP DP  RH WIND       PRES   REMARKS
LEXINGTON      CLOUDY    24  16  71 W10       29.79F WCI  14
COVINGTON      LGT SNOW  23  17  78 W16       29.76S WCI  10
FRANKFORT      NOT AVBL
$$

KYZ054-064>069-076>088-106>120-092000-
SOUTHEAST KENTUCKY

CITY           SKY/WX    TMP DP  RH WIND       PRES   REMARKS
JACKSON        CLOUDY    22  13  68 VRB3      29.75S
LONDON         LGT SNOW  22  14  71 W8        29.79S WCI  12
SOMERSET       CLOUDY    23  14  68 W9        29.85S WCI  13
MIDDLESBORO    CLOUDY    25  15  67 W6        29.80S WCI  18
MONTICELLO     FLURRIES  25  16  68 W14G22    29.85S WCI  13
$$





USA.gov is the U.S. government's official web portal to all federal, state and local government web resources and services.